Изумруд

Россия / Свердловская область     57°04′24″N   61°24′00″E
темп.,
°C
ветер,
м/с
пор.,
м/с
влажн.,
%
обл.,
%
осадки,
мм/ч
давл.,
гПа
погр.,
м
12 мая, ср
ср1223:00+15зюз3540100 0.0 102691
02:00+14сз366543 0.0 1026116
05:00+12сз288378 0.0 1028146
08:00+16с355821 0.0 1028417
11:00+20ссз34455 0.0 10281317
14:00+22ссз343442 0.0 10271811
17:00+22ссз343482 0.0 10271945
20:00+19ссз12468 0.0 102711
13 мая, чт
чт1323:00+15сз115467 0.0 102711
02:00+14з246057 0.0 102754
05:00+12зсз236858 0.0 102747
08:00+18сз36527 0.0 1027322
11:00+23сз463710 0.0 10271548
14:00+26ссз46305 0.0 10252038
17:00+26ссз45285 0.0 10252413
20:00+22ссз22415 0.0 102511
14 мая, пт
пт1423:00+18сз11485 0.0 102611
02:00+16зсз015530 0.0 102611
05:00+14зюз22624 0.0 102711
08:00+21зюз24470 0.0 1026246
11:00+26з35312 0.0 10251942
14:00+28з46265 0.0 10242893
17:00+29з57235 0.0 10233217
20:00+24з39360 0.0 1022239
15 мая, сб
сб1523:00+18з310445 0.0 1023180
02:00+17зюз3115857 0.0 1022228
05:00+16зюз3126619 0.0 1023252
08:00+21з495047 0.0 1023404
11:00+26з583498 0.0 10221294
14:00+29з5825100 0.0 10212504
17:00+29з582642 0.0 10202459
20:00+25з38365 0.0 1019232
16 мая, вс
вс1623:00+19зюз395377 0.0 1020170
02:00+17з312595 0.0 1020242
05:00+16з312635 0.0 1020219
08:00+22зюз49445 0.0 1020387
11:00+28з582696 0.0 10191485
14:00+30з57205 0.0 10182671
17:00+30з57195 0.0 10173431
20:00+25зюз38346 0.0 1017218